Home > Weather > Barreiras > Past weeks

Flag for Brazil Past Weather in Barreiras, Bahia, Brazil — Yesterday and Last 2 Weeks

Now
64 °F

Sunny.


Feels Like: 64 °F
Forecast: 62 / 88 °F
Wind: 16 mph from Southeast

Location: Brasilia Aeroporto

Current Time: Jun 30, 2016 at 9:26:57 AM

Latest Report: Jun 30, 2016 at 9:00 AM


Visibility: 10 mi

Pressure: 30.27 "Hg

Humidity: 68%

Dew Point: 54 °F

Location of BarreirasLocation

Past Weather in Barreiras — Graph

°F

Barreiras Temperature Yesterday

Maximum temperature yesterday: 77 °F (at 4:00 PM)
Minimum temperature yesterday: 52 °F (at 2:00 AM)
Average temperature yesterday: 65 °F

High & Low Weather Summary for the Past Weeks

 TemperatureHumidityPressure
High81 °F (Jun 18, 2:00 PM)100% (Jun 17, 5:00 AM)30.39 "Hg (Jun 17, 5:00 AM)
Low48 °F (Jun 17, 5:00 AM)23% (Jun 18, 2:00 PM)30.15 "Hg (Jun 17, 2:00 PM)
Average66 °F61%30.23 "Hg
* Reported Jun 15 8:00 AM — Jun 30 8:00 AM, Barreiras, Weather by CustomWeather, © 2016

Note: Actual official high and low records may vary slightly from our data, if they occured in-between our weather recording intervals... More about our weather records

Advertising

Barreiras Weather History for the Previous 24 Hours

Scroll right to see more
 ConditionsComfort  
Time TempWeatherWind HumidityBarometerVisibility
8:00 AM
Thu, Jun 30
61 °FSunny.7 mph72%30.27 "Hg10 mi
7:00 AM55 °FSunny.2 mph77%30.24 "Hg10 mi
6:00 AM55 °FClear.5 mph77%30.21 "Hg10 mi
4:00 AM54 °FClear.No wind77%30.21 "Hg10 mi
3:00 AM59 °FClear.5 mph63%30.21 "Hg10 mi
2:00 AM59 °FClear.3 mph63%30.21 "Hg10 mi
1:00 AM61 °FClear.6 mph59%30.24 "Hg10 mi
12:00 AM61 °FClear.5 mph59%30.24 "Hg10 mi
11:00 PM
Wed, Jun 29
63 °FClear.6 mph56%30.27 "Hg10 mi
10:00 PM63 °FClear.8 mph56%30.27 "Hg10 mi
9:00 PM64 °FClear.9 mph52%30.27 "Hg10 mi
8:00 PM66 °FPassing clouds.8 mph52%30.24 "HgN/A
7:00 PM70 °FPassing clouds.10 mph46%30.21 "HgN/A
6:00 PM72 °FPassing clouds.9 mph44%30.21 "HgN/A
5:00 PM75 °FScattered clouds.10 mph34%30.21 "HgN/A
4:00 PM77 °FScattered clouds.13 mph30%30.18 "HgN/A
3:00 PM75 °FScattered clouds.13 mph36%30.18 "HgN/A
2:00 PM75 °FPartly sunny.13 mph34%30.21 "HgN/A
1:00 PM75 °FPartly sunny.12 mph39%30.27 "HgN/A
12:00 PM72 °FPartly sunny.14 mph53%30.30 "HgN/A
11:00 AM70 °FPartly sunny.16 mph60%30.30 "HgN/A
10:00 AM68 °FPartly sunny.16 mph69%30.33 "HgN/A
9:00 AM64 °FPartly sunny.16 mph78%30.30 "HgN/A
Weather by CustomWeather, © 2016

See weather overviewHow to use our weather pages